Location: *
(35.2348°S, 91.3916°E)
Time: 19:42:04
(UTC+00:00)

Cosmos 2369 - Pass Details

Date: 23 October 2019
Orbit: 838 x 857 km, 71.0° (Epoch: 11 November)

Event Time Altitude Azimuth Distance (km) Brightness Sun altitude
Rises 15:04:48 0° 206° (SSW) 3,433 7.9 -30.8°
Reaches altitude 10° 15:07:17 10° 208° (SSW) 2,488 7.0 -31.2°
Enters shadow 15:12:09 56° 251° (WSW) 1,002 4.2 -31.8°
